Weather History for KLBR - May, 2014

Change the Weather History Date:

Monday, May 26, 2014

  Actual Average (KPRX) Record (KPRX)
Temperature  
Mean Temperature 76 °F -  
Max Temperature 82 °F 81 °F 89 °F (1997)
Min Temperature 69 °F 63 °F 55 °F (2003)
Cooling Degree Days 11    
Growing Degree Days 26 (Base 50)    
Moisture  
Dew Point 66 °F    
Average Humidity 75    
Maximum Humidity 93    
Minimum Humidity 54    
Precipitation  
Precipitation 0.00 in - - ()
Sea Level Pressure  
Sea Level Pressure 30.02 in    
Wind  
Wind Speed 4 mph (SE)    
Max Wind Speed 12 mph    
Max Gust Speed 17 mph    
Visibility 8 miles    
Events      
Averages and records for this station are not official NWS values.
T = Trace of Precipitation, MM = Missing Value Source: NWS Daily Summary

Daily Weather History Graph

Daily Weather History Graph

Search for Another Location

Airport or City:

Trip Planner

Search our weather history database for the weather conditions in past years. The results will help you decide how hot, cold, wet, or windy it might be!

Date:

Astronomy

May. 26, 2014 Rise Set
Actual Time 6:13 AM CDT 8:21 PM CDT
Civil Twilight 5:45 AM CDT 8:49 PM CDT
Nautical Twilight 5:10 AM CDT 9:24 PM CDT
Astronomical Twilight 4:33 AM CDT 10:01 PM CDT
Moon 4:48 AM CDT (5/26) 6:30 PM CDT (5/26)
Length of Visible Light 15h 04m
Length of Day
14h 08m
Waning Crescent, 5% of the Moon is Illuminated
May 26
Waning Crescent
May 28
New
Jun 5
First Quarter
Jun 12
Full
Jun 19
Last Quarter

Hourly Weather History & Observations

Time (CDT) Temp. Heat Index Dew Point Humidity Pressure Visibility Wind Dir Wind Speed Gust Speed Precip Events Conditions
12:15 AM 73.2 °F - 65.3 °F 76% 30.01 in 10.0 mi ESE 3.5 mph - N/A   Clear
12:35 AM 73.4 °F - 65.5 °F 76% 30.01 in 10.0 mi SE 3.5 mph - N/A   Clear
12:55 AM 73.4 °F - 65.5 °F 76% 30.00 in 7.0 mi ESE 4.6 mph - N/A   Clear
1:15 AM 73.4 °F - 65.5 °F 76% 30.01 in 10.0 mi Calm Calm - N/A   Clear
1:35 AM 72.5 °F - 65.3 °F 78% 30.01 in 10.0 mi Calm Calm - N/A   Clear
1:55 AM 71.4 °F - 65.1 °F 80% 30.00 in 7.0 mi Calm Calm - N/A   Clear
2:15 AM 70.9 °F - 65.3 °F 82% 30.01 in 10.0 mi Calm Calm - N/A   Clear
2:35 AM 71.1 °F - 65.3 °F 82% 30.00 in 10.0 mi ESE 3.5 mph - N/A   Clear
2:55 AM 71.6 °F - 65.7 °F 81% 30.01 in 10.0 mi Calm Calm - N/A   Clear
3:15 AM 71.1 °F - 65.5 °F 82% 30.01 in 10.0 mi Calm Calm - N/A   Clear
3:35 AM 71.1 °F - 65.5 °F 82% 30.01 in 10.0 mi Calm Calm - N/A   Clear
3:55 AM 70.2 °F - 65.8 °F 86% 30.01 in 10.0 mi Calm Calm - N/A   Clear
4:15 AM 70.7 °F - 66.6 °F 87% 30.02 in 10.0 mi Calm Calm - N/A   Clear
4:35 AM 70.2 °F - 67.1 °F 90% 30.01 in 7.0 mi ESE 4.6 mph - N/A   Clear
4:55 AM 70.7 °F - 67.5 °F 89% 30.02 in 10.0 mi SE 3.5 mph - N/A   Clear
5:15 AM 70.7 °F - 67.6 °F 90% 30.03 in 10.0 mi Calm Calm - N/A   Clear
5:35 AM 70.7 °F - 67.6 °F 90% 30.03 in 10.0 mi Calm Calm - N/A   Clear
5:55 AM 70.7 °F - 67.6 °F 90% 30.04 in 10.0 mi Calm Calm - N/A   Clear
6:15 AM 70.7 °F - 68.0 °F 91% 30.05 in 10.0 mi SSE 4.6 mph - N/A   Clear
6:35 AM 70.3 °F - 68.0 °F 92% 30.05 in 7.0 mi Calm Calm - N/A   Clear
6:55 AM 70.5 °F - 68.2 °F 92% 30.05 in 7.0 mi ESE 3.5 mph - N/A   Clear
7:15 AM 70.7 °F - 68.4 °F 92% 30.06 in 10.0 mi ESE 3.5 mph - N/A   Scattered Clouds
7:35 AM 71.1 °F - 68.9 °F 93% 30.06 in 7.0 mi SE 5.8 mph - N/A   Clear
7:55 AM 72.1 °F - 69.1 °F 90% 30.06 in 7.0 mi SE 4.6 mph - N/A   Clear
8:15 AM 72.7 °F - 69.1 °F 88% 30.06 in 10.0 mi SE 6.9 mph - N/A   Clear
8:35 AM 72.9 °F - 69.1 °F 88% 30.07 in 10.0 mi SE 5.8 mph - N/A   Clear
8:55 AM 73.0 °F - 69.1 °F 87% 30.08 in 7.0 mi SSE 6.9 mph - N/A   Clear
9:15 AM 73.4 °F - 69.1 °F 86% 30.08 in 10.0 mi SSE 5.8 mph - N/A   Scattered Clouds
9:35 AM 73.9 °F - 69.3 °F 85% 30.09 in 10.0 mi SSE 6.9 mph - N/A   Scattered Clouds
10:15 AM 76.1 °F - 67.1 °F 74% 30.08 in 10.0 mi South 5.8 mph - N/A   Clear
10:35 AM 78.3 °F - 66.9 °F 68% 30.07 in 10.0 mi South 5.8 mph - N/A   Scattered Clouds
10:55 AM 79.7 °F - 67.5 °F 66% 30.07 in 10.0 mi South 6.9 mph - N/A   Scattered Clouds
11:15 AM 78.6 °F - 66.2 °F 66% 30.07 in 7.0 mi South 4.6 mph - N/A   Scattered Clouds
11:35 AM 78.3 °F - 66.2 °F 66% 30.06 in 7.0 mi SSE 5.8 mph - N/A   Scattered Clouds
11:55 AM 79.3 °F - 66.4 °F 64% 30.06 in 7.0 mi SSE 4.6 mph - N/A   Clear
12:15 PM 78.8 °F - 66.2 °F 65% 30.05 in 10.0 mi SE 5.8 mph - N/A   Scattered Clouds
12:35 PM 79.0 °F - 66.2 °F 65% 30.05 in 10.0 mi ESE 5.8 mph - N/A   Clear
1:15 PM 79.2 °F - 65.3 °F 62% 30.06 in 7.0 mi SE 8.1 mph - N/A   Scattered Clouds
1:35 PM 80.8 °F 83.1 °F 66.7 °F 62% 30.06 in 10.0 mi SE 4.6 mph - N/A   Clear
1:55 PM 81.7 °F 84.0 °F 66.4 °F 60% 30.05 in 7.0 mi SE 8.1 mph - N/A   Mostly Cloudy
2:15 PM 81.5 °F 83.7 °F 66.4 °F 60% 30.04 in 7.0 mi SSE 6.9 mph - N/A   Scattered Clouds
2:35 PM 81.9 °F 83.9 °F 65.8 °F 58% 30.04 in 7.0 mi SSE 9.2 mph - N/A   Scattered Clouds
2:55 PM 82.6 °F 84.1 °F 64.6 °F 54% 30.03 in 5.0 mi South 8.1 mph - N/A   Scattered Clouds
3:15 PM 81.5 °F 82.9 °F 63.9 °F 55% 30.03 in 10.0 mi SSE 11.5 mph 17.3 mph N/A   Scattered Clouds
3:35 PM 82.4 °F 83.9 °F 64.0 °F 54% 30.02 in 7.0 mi SSE 11.5 mph - N/A   Clear
3:55 PM 81.9 °F 83.7 °F 65.1 °F 57% 30.02 in 10.0 mi SSE 8.1 mph - N/A   Clear
4:15 PM 81.5 °F 83.1 °F 64.2 °F 56% 30.02 in 10.0 mi South 8.1 mph - N/A   Clear
4:35 PM 81.1 °F 82.9 °F 65.1 °F 58% 30.01 in 10.0 mi South 5.8 mph - N/A   Clear
4:55 PM 81.0 °F 83.0 °F 65.8 °F 60% 30.01 in 10.0 mi South 4.6 mph - N/A   Clear
5:15 PM 80.6 °F 83.1 °F 67.3 °F 64% 30.00 in 10.0 mi South 3.5 mph - N/A   Clear
5:35 PM 79.7 °F - 67.5 °F 66% 30.00 in 7.0 mi South 4.6 mph - N/A   Clear
5:55 PM 79.7 °F - 66.0 °F 63% 29.99 in 7.0 mi SE 6.9 mph - N/A   Clear
6:15 PM 79.3 °F - 66.6 °F 65% 29.99 in 7.0 mi South 4.6 mph - N/A   Clear
6:35 PM 78.8 °F - 66.9 °F 67% 29.97 in 3.0 mi ESE 5.8 mph - N/A   Clear
6:55 PM 78.4 °F - 66.4 °F 66% 29.98 in 4.0 mi SSE 6.9 mph - N/A   Clear
7:15 PM 77.5 °F - 66.6 °F 69% 29.97 in 7.0 mi SE 4.6 mph - N/A   Clear
7:35 PM 77.4 °F - 67.1 °F 71% 29.97 in 3.0 mi SE 5.8 mph - N/A   Unknown
7:55 PM 76.8 °F - 67.1 °F 72% 29.96 in 4.0 mi ESE 5.8 mph - N/A   Clear
8:15 PM 77.0 °F - 66.4 °F 70% 29.97 in 2.5 mi SE 5.8 mph - N/A   Unknown
8:35 PM 76.1 °F - 65.5 °F 70% 29.98 in 4.0 mi SE 5.8 mph - N/A   Clear
8:55 PM 75.6 °F - 65.5 °F 71% 29.98 in 5.0 mi SE 5.8 mph - N/A   Clear
9:15 PM 75.4 °F - 65.7 °F 72% 29.98 in 7.0 mi SE 6.9 mph - N/A   Clear
9:35 PM 74.8 °F - 65.8 °F 73% 29.99 in 7.0 mi SE 4.6 mph - N/A   Clear
9:55 PM 74.3 °F - 65.8 °F 75% 30.00 in 7.0 mi SE 4.6 mph - N/A   Clear
10:15 PM 73.8 °F - 65.5 °F 75% 30.02 in 7.0 mi SSE 5.8 mph - N/A   Clear
10:35 PM 72.5 °F - 65.5 °F 79% 30.02 in 7.0 mi SE 3.5 mph - N/A   Clear
10:55 PM 71.8 °F - 65.5 °F 80% 30.03 in 7.0 mi Calm Calm - N/A   Clear
11:15 PM 71.2 °F - 65.3 °F 81% 30.02 in 7.0 mi Calm Calm - N/A   Clear
11:35 PM 70.5 °F - 66.4 °F 87% 30.02 in 5.0 mi Calm Calm - N/A   Clear
11:55 PM 69.6 °F - 66.7 °F 91% 30.01 in 7.0 mi ESE 3.5 mph - N/A   Clear